| time (UTC) | temp F | wind direction | speed MPH | gust MPH | rain 1hr in | rain 24hr in | rain mn in | humidity % | barometer mb |
| 20260903230046 | 71 | 0 | 0.0 | 0.0 | 0.00 | 0.04 | 0.04 | 89 | 1011.5 |
| 20260903224543 | 71 | 0 | 0.0 | 2.0 | 0.00 | 0.04 | 0.04 | 88 | 1011.4 |
| 20260903223043 | 72 | 0 | 0.0 | 0.0 | 0.00 | 0.04 | 0.04 | 87 | 1011.5 |
| 20260903221930 | 73 | 53 | 0.0 | 0.0 | 0.00 | 0.03 | 0.04 | 86 | 1011.5 |
| 20260903221543 | 72 | 0 | 0.0 | 2.0 | 0.00 | 0.04 | 0.04 | 85 | 1011.4 |
| 20260903220100 | 72 | 124 | 0.0 | 3.0 | 0.00 | 0.04 | 0.04 | 86 | 1011.9 |
| 20260903214543 | 73 | 0 | 0.0 | 3.0 | 0.00 | 0.04 | 0.04 | 85 | 1011.9 |
| 20260903213042 | 74 | 206 | 0.0 | 4.0 | 0.00 | 0.04 | 0.04 | 82 | 1011.8 |
| 20260903211611 | 75 | 0 | 1.0 | 4.0 | 0.00 | 0.04 | 0.04 | 80 | 1011.8 |
| 20260903210045 | 76 | 337 | 0.0 | 4.0 | 0.00 | 0.04 | 0.04 | 79 | 1011.7 |
| 20260903204542 | 77 | 67 | 1.0 | 5.0 | 0.00 | 0.04 | 0.04 | 76 | 1011.8 |
| 20260903203043 | 77 | 180 | 0.0 | 5.0 | 0.00 | 0.04 | 0.04 | 76 | 1011.9 |
| 20260903201542 | 76 | 0 | 0.0 | 3.0 | 0.00 | 0.04 | 0.04 | 76 | 1012.0 |
| 20260903200048 | 77 | 109 | 1.0 | 3.0 | 0.00 | 0.04 | 0.04 | 75 | 1012.1 |
| 20260903194546 | 77 | 138 | 0.0 | 4.0 | 0.00 | 0.04 | 0.04 | 76 | 1012.2 |
| 20260903193043 | 77 | 213 | 0.0 | 5.0 | 0.00 | 0.04 | 0.04 | 75 | 1012.3 |
| 20260903191542 | 77 | 0 | 0.0 | 3.0 | 0.00 | 0.04 | 0.04 | 78 | 1012.4 |
| 20260903190045 | 76 | 167 | 1.0 | 4.0 | 0.00 | 0.04 | 0.04 | 75 | 1012.4 |
| 20260903184542 | 76 | 0 | 1.0 | 5.0 | 0.00 | 0.04 | 0.04 | 77 | 1012.4 |
| 20260903183042 | 75 | 22 | 0.0 | 7.0 | 0.00 | 0.04 | 0.04 | 78 | 1012.7 |
| 20260903181545 | 73 | 0 | 1.0 | 5.0 | 0.00 | 0.04 | 0.04 | 82 | 1012.9 |
| 20260903180044 | 72 | 249 | 1.0 | 5.0 | 0.00 | 0.04 | 0.04 | 85 | 1013.1 |
| 20260903174600 | 70 | 0 | 0.0 | 7.0 | 0.00 | 0.04 | 0.04 | 87 | 1013.2 |
| 20260903173042 | 70 | 0 | 0.0 | 2.0 | 0.00 | 0.04 | 0.04 | 86 | 1013.4 |
| 20260903171548 | 69 | 188 | 0.0 | 4.0 | 0.00 | 0.04 | 0.04 | 88 | 1013.6 |
| 20260903170105 | 68 | 0 | 0.0 | 4.0 | 0.00 | 0.04 | 0.04 | 88 | 1013.5 |
| 20260903164550 | 67 | 0 | 0.0 | 4.0 | 0.00 | 0.04 | 0.04 | 87 | 1013.6 |
| 20260903163042 | 67 | 0 | 0.0 | 1.0 | 0.00 | 0.04 | 0.04 | 88 | 1013.5 |
| 20260903161543 | 67 | 155 | 1.0 | 5.0 | 0.00 | 0.04 | 0.04 | 88 | 1013.6 |
| 20260903160041 | 66 | 0 | 0.0 | 1.0 | 0.00 | 0.04 | 0.04 | 90 | 1013.9 |
| 20260903154546 | 66 | 0 | 0.0 | 3.0 | 0.00 | 0.04 | 0.04 | 90 | 1014.0 |
| 20260903153050 | 65 | 0 | 0.0 | 3.0 | 0.00 | 0.04 | 0.04 | 92 | 1014.1 |
| 20260903151551 | 64 | 0 | 0.0 | 0.0 | 0.00 | 0.04 | 0.04 | 93 | 1014.5 |
| 20260903150044 | 64 | 0 | 0.0 | 0.0 | 0.00 | 0.04 | 0.04 | 92 | 1014.7 |
| 20260903144546 | 64 | 0 | 0.0 | 1.0 | 0.00 | 0.04 | 0.04 | 93 | 1014.6 |
| 20260903143044 | 63 | 0 | 0.0 | 1.0 | 0.00 | 0.04 | 0.04 | 93 | 1014.7 |
| 20260903141543 | 63 | 0 | 0.0 | 0.0 | 0.00 | 0.04 | 0.04 | 93 | 1015.1 |
| 20260903140639 | 63 | 95 | 0.0 | 0.0 | 0.00 | 0.03 | 0.04 | 93 | 1015.0 |
| 20260903140120 | 63 | 95 | 0.0 | 0.0 | 0.00 | 0.03 | 0.04 | 93 | 1015.0 |
| 20260903140043 | 63 | 0 | 0.0 | 1.0 | 0.00 | 0.04 | 0.04 | 93 | 1015.0 |
| 20260903135607 | 63 | 95 | 0.0 | 0.0 | 0.00 | 0.03 | 0.04 | 93 | 1014.9 |
| 20260903135059 | 63 | 95 | 0.0 | 0.0 | 0.00 | 0.03 | 0.04 | 93 | 1014.9 |
| 20260903134604 | 63 | 174 | 0.0 | 0.0 | 0.00 | 0.03 | 0.04 | 93 | 1014.9 |
| 20260903134544 | 63 | 0 | 0.0 | 2.0 | 0.00 | 0.04 | 0.04 | 93 | 1014.9 |
| 20260903134050 | 63 | 174 | 0.0 | 0.0 | 0.00 | 0.03 | 0.04 | 92 | 1014.8 |
| 20260903133050 | 62 | 0 | 0.0 | 1.0 | 0.00 | 0.04 | 0.04 | 93 | 1014.8 |
| 20260903131553 | 62 | 0 | 0.0 | 3.0 | 0.00 | 0.04 | 0.04 | 93 | 1014.7 |
| 20260903130044 | 62 | 0 | 0.0 | 5.0 | 0.00 | 0.04 | 0.04 | 93 | 1014.9 |
| 20260903124543 | 61 | 91 | 1.0 | 4.0 | 0.00 | 0.04 | 0.04 | 94 | 1014.9 |
| 20260903123044 | 61 | 0 | 0.0 | 3.0 | 0.00 | 0.04 | 0.04 | 95 | 1014.9 |
| 20260903121546 | 61 | 0 | 0.0 | 1.0 | 0.00 | 0.04 | 0.04 | 95 | 1015.0 |
| 20260903120043 | 60 | 0 | 0.0 | 2.0 | 0.00 | 0.04 | 0.04 | 95 | 1015.1 |
| 20260903114542 | 60 | 0 | 0.0 | 2.0 | 0.00 | 0.04 | 0.04 | 95 | 1015.2 |
| 20260903113042 | 60 | 170 | 0.0 | 3.0 | 0.00 | 0.04 | 0.04 | 95 | 1015.3 |
| 20260903111615 | 60 | 0 | 0.0 | 2.0 | 0.00 | 0.04 | 0.04 | 95 | 1015.3 |
| 20260903110043 | 60 | 0 | 0.0 | 2.0 | 0.00 | 0.04 | 0.04 | 95 | 1015.2 |
| 20260903104557 | 60 | 0 | 0.0 | 5.0 | 0.00 | 0.04 | 0.04 | 95 | 1015.0 |
| 20260903103042 | 60 | 17 | 0.0 | 3.0 | 0.00 | 0.04 | 0.04 | 95 | 1014.9 |
| 20260903101545 | 59 | 0 | 0.0 | 2.0 | 0.00 | 0.04 | 0.04 | 95 | 1014.7 |
| 20260903100045 | 59 | 0 | 0.0 | 2.0 | 0.00 | 0.04 | 0.04 | 95 | 1014.9 |
| 20260903094544 | 59 | 0 | 0.0 | 3.0 | 0.00 | 0.04 | 0.04 | 95 | 1015.0 |
| 20260903093046 | 59 | 0 | 0.0 | 1.0 | 0.00 | 0.04 | 0.04 | 95 | 1015.1 |
| 20260903091542 | 59 | 0 | 0.0 | 1.0 | 0.00 | 0.04 | 0.04 | 95 | 1015.2 |
| 20260903090050 | 59 | 0 | 0.0 | 3.0 | 0.00 | 0.04 | 0.04 | 95 | 1015.3 |
| 20260903084542 | 59 | 214 | 0.0 | 3.0 | 0.00 | 0.04 | 0.04 | 95 | 1015.4 |
| 20260903083041 | 59 | 0 | 0.0 | 3.0 | 0.00 | 0.04 | 0.04 | 95 | 1015.7 |
| 20260903081543 | 59 | 0 | 0.0 | 1.0 | 0.00 | 0.04 | 0.04 | 95 | 1015.7 |
| 20260903080044 | 59 | 0 | 0.0 | 2.0 | 0.00 | 0.04 | 0.04 | 95 | 1015.7 |
| 20260903074541 | 59 | 0 | 0.0 | 1.0 | 0.00 | 0.04 | 0.04 | 94 | 1015.8 |
| 20260903073046 | 59 | 0 | 0.0 | 2.0 | 0.00 | 0.04 | 0.04 | 94 | 1015.9 |
| 20260903071544 | 59 | 0 | 0.0 | 5.0 | 0.00 | 0.04 | 0.04 | 94 | 1016.2 |
| 20260903070045 | 59 | 0 | 0.0 | 2.0 | 0.01 | 0.04 | 0.04 | 94 | 1016.0 |
| 20260903064540 | 59 | 0 | 0.0 | 1.0 | 0.03 | 0.04 | 0.04 | 94 | 1016.1 |
| 20260903063041 | 59 | 0 | 0.0 | 1.0 | 0.04 | 0.04 | 0.04 | 93 | 1016.0 |
| 20260903061558 | 60 | 0 | 0.0 | 2.0 | 0.04 | 0.04 | 0.04 | 92 | 1016.3 |
| 20260903060045 | 61 | 207 | 0.0 | 6.0 | 0.03 | 0.03 | 0.03 | 90 | 1016.4 |
| 20260903054542 | 62 | 0 | 0.0 | 3.0 | 0.01 | 0.02 | 0.01 | 87 | 1016.6 |
| 20260903053055 | 62 | 0 | 0.0 | 2.0 | 0.00 | 0.01 | 0.00 | 86 | 1016.8 |
| 20260903051548 | 62 | 0 | 0.0 | 4.0 | 0.00 | 0.01 | 0.00 | 86 | 1016.9 |
| 20260903050042 | 62 | 0 | 0.0 | 1.0 | 0.00 | 0.01 | 0.00 | 86 | 1017.0 |
| 20260903044540 | 62 | 0 | 0.0 | 3.0 | 0.00 | 0.01 | 0.00 | 85 | 1017.2 |
| 20260903043043 | 62 | 52 | 0.0 | 3.0 | 0.00 | 0.01 | 0.00 | 86 | 1017.3 |
| 20260903041542 | 62 | 280 | 1.0 | 3.0 | 0.00 | 0.01 | 0.00 | 85 | 1017.2 |
| 20260903040040 | 62 | 57 | 0.0 | 4.0 | 0.00 | 0.01 | 0.00 | 85 | 1017.1 |
| 20260903034543 | 62 | 0 | 0.0 | 2.0 | 0.00 | 0.01 | 0.01 | 84 | 1017.6 |
| 20260903033049 | 62 | 0 | 0.0 | 4.0 | 0.00 | 0.01 | 0.01 | 83 | 1017.4 |
| 20260903031549 | 62 | 96 | 0.0 | 3.0 | 0.00 | 0.01 | 0.01 | 83 | 1018.0 |
| 20260903030106 | 62 | 0 | 0.0 | 1.0 | 0.00 | 0.01 | 0.01 | 84 | 1018.3 |
| 20260903024545 | 63 | 0 | 0.0 | 2.0 | 0.00 | 0.01 | 0.01 | 83 | 1018.5 |
| 20260903023043 | 63 | 353 | 0.0 | 3.0 | 0.00 | 0.01 | 0.01 | 83 | 1018.2 |
| 20260903021542 | 63 | 0 | 0.0 | 3.0 | 0.00 | 0.01 | 0.01 | 84 | 1018.3 |
| 20260903020050 | 63 | 83 | 1.0 | 8.0 | 0.00 | 0.01 | 0.01 | 83 | 1018.7 |
| 20260903014544 | 63 | 0 | 0.0 | 2.0 | 0.00 | 0.01 | 0.01 | 84 | 1018.6 |
| 20260903013515 | 63 | 148 | 0.0 | 0.0 | 0.00 | 0.01 | 0.01 | 85 | 1018.9 |
| 20260903013045 | 63 | 0 | 1.0 | 5.0 | 0.00 | 0.01 | 0.01 | 85 | 1019.1 |
| 20260903013001 | 64 | 151 | 0.0 | 4.0 | 0.00 | 0.01 | 0.01 | 85 | 1019.1 |
| 20260903012453 | 64 | 68 | 0.0 | 4.0 | 0.00 | 0.01 | 0.01 | 84 | 1018.9 |
| 20260903011552 | 63 | 0 | 0.0 | 4.0 | 0.00 | 0.01 | 0.01 | 84 | 1018.9 |
| 20260903011317 | 64 | 60 | 0.0 | 6.0 | 0.00 | 0.01 | 0.01 | 84 | 1018.9 |
| 20260903010812 | 64 | 46 | 0.0 | 6.0 | 0.00 | 0.01 | 0.01 | 84 | 1018.7 |
| 20260903010253 | 64 | 74 | 0.0 | 6.0 | 0.00 | 0.01 | 0.01 | 85 | 1018.8 |
| 20260903010050 | 63 | 120 | 0.0 | 7.0 | 0.00 | 0.01 | 0.01 | 85 | 1018.7 |
| 20260903005748 | 64 | 90 | 0.0 | 0.0 | 0.00 | 0.01 | 0.01 | 86 | 1018.8 |
| 20260903005244 | 64 | 22 | 0.0 | 0.0 | 0.00 | 0.00 | 0.01 | 86 | 1018.7 |
| 20260903004544 | 63 | 0 | 0.0 | 4.0 | 0.00 | 0.01 | 0.01 | 86 | 1018.5 |
| 20260903003043 | 63 | 0 | 0.0 | 6.0 | 0.00 | 0.01 | 0.01 | 87 | 1018.4 |
| 20260903001542 | 63 | 75 | 1.0 | 6.0 | 0.00 | 0.01 | 0.01 | 87 | 1018.5 |
| 20260903000046 | 63 | 243 | 0.0 | 4.0 | 0.00 | 0.01 | 0.01 | 88 | 1018.0 |
| 20260902234543 | 63 | 0 | 0.0 | 4.0 | 0.00 | 0.01 | 0.01 | 88 | 1018.1 |
| 20260902233043 | 64 | 24 | 0.0 | 3.0 | 0.00 | 0.01 | 0.01 | 88 | 1018.2 |
| 20260902231600 | 64 | 41 | 0.0 | 7.0 | 0.00 | 0.01 | 0.01 | 87 | 1018.8 |